DIRECTV 14 (40333 NORAD) Tracking and Keplerian Element Data

This shows tracking and keplerian element data for the satellite.

Feedback or suggestion? Click here.




ElementValue
Catalog40333
NameDIRECTV 14
Epoch Orbit3705
Epoch Day34.59245285
Epoch Year2025
RAAN353.9763
Inclination0.0161
Eccentricity4.52E-05
Argument of Perigee206.8412
Mean Anonmoly47.2129
Mean Motion1.00270991
Decay Rate-1.2E-06
L11 40333U 14078B 25034.59245285 -.00000120 00000+0 00000+0 0 9999
L22 40333 0.0161 353.9763 0000452 206.8412 47.2129 1.00270991 37052



Live tracking and technical data element details for DIRECTV 14 (NORAD 40333). DIRECTV 14 can be tracked NOW for your location showing map with azimuth and elevation plus other details from your city location.







IsCatalogInMostPopularTable: catalog: 40333, numindb: 610
Update: records affected: 1



GetName: 40333 DIRECTV 14

Hit Count: updated at: Fri, 16 May 2025 11:41:29 GMT